SV7JLF-3 Weather Reports


Display with metric or nautical units.
time (UTC)temp
F
wind
direction
speed
MPH
gust
MPH
rain 1hr
in
rain 24hr
in
rain mn
in
humidity
%
barometer
mb
20260508002017 54 211 3.0 0.0 0.00 0.00 0.00 88 1017.9
20260508001949 54 211 2.0 3.0 0.00 0.00 0.00 88 1017.5
20260508001604 53 211 3.0 0.0 0.00 0.00 0.00 88 1017.8
20260508001532 54 211 3.0 0.0 0.00 0.00 0.00 87 1017.9
20260508001025 54 199 3.0 0.0 0.00 0.00 0.00 87 1017.9
20260508000949 54 199 3.0 3.0 0.00 0.00 0.00 87 1017.5
20260508000523 54 199 3.0 0.0 0.00 0.00 0.00 87 1017.9
20260508000047 54 190 3.0 0.0 0.00 0.00 0.00 87 1017.8
20260508000027 54 189 3.0 0.0 0.00 0.00 0.00 87 1017.9
20260507235949 54 184 3.0 3.0 0.00 0.00 0.00 87 1017.6
20260507235520 54 170 2.0 0.0 0.00 0.00 0.00 87 1017.9
20260507235037 55 169 2.0 0.0 0.00 0.00 0.00 87 1018.0
20260507234948 55 169 2.0 3.0 0.00 0.00 0.00 87 1017.6
20260507234531 55 169 1.0 0.0 0.00 0.00 0.00 87 1017.9
20260507234507 54 169 2.0 0.0 0.00 0.00 0.00 87 1018.0
20260507234041 55 169 2.0 0.0 0.00 0.00 0.00 87 1018.1
20260507233950 55 169 1.0 3.0 0.00 0.00 0.00 87 1017.7
20260507233510 55 169 2.0 0.0 0.00 0.00 0.00 87 1018.0
20260507233117 55 169 2.0 0.0 0.00 0.00 0.00 87 1018.1
20260507233023 55 169 2.0 0.0 0.00 0.00 0.00 87 1018.1
20260507232949 55 169 2.0 3.0 0.00 0.00 0.00 87 1018.0
20260507232512 55 169 1.0 0.0 0.00 0.00 0.00 86 1018.3
20260507232024 55 169 1.0 0.0 0.00 0.00 0.00 86 1018.3
20260507231950 55 169 0.0 3.0 0.00 0.00 0.00 86 1017.8
20260507231618 55 169 2.0 0.0 0.00 0.00 0.00 86 1018.1
20260507231518 55 169 3.0 0.0 0.00 0.00 0.00 86 1018.2
20260507231031 55 167 2.0 0.0 0.00 0.00 0.00 86 1018.2
20260507230949 55 167 2.0 3.0 0.00 0.00 0.00 86 1017.9
20260507230517 55 167 2.0 0.0 0.00 0.00 0.00 86 1018.3
20260507230118 55 167 2.0 0.0 0.00 0.00 0.00 86 1018.4
20260507230008 56 167 2.0 0.0 0.00 0.00 0.00 86 1018.4
20260507225517 56 167 2.0 0.0 0.00 0.00 0.00 86 1018.4
20260507225009 56 167 3.0 0.0 0.00 0.00 0.00 86 1018.2
20260507224949 56 167 3.0 5.0 0.00 0.00 0.00 86 1018.1
20260507224619 55 167 3.0 0.0 0.00 0.00 0.00 85 1018.4
20260507224523 56 166 3.0 0.0 0.00 0.00 0.00 85 1018.6
20260507224012 56 157 2.0 0.0 0.00 0.00 0.00 85 1018.4
20260507223520 56 211 2.0 0.0 0.00 0.00 0.00 85 1018.4
20260507223115 56 211 2.0 0.0 0.00 0.00 0.00 85 1018.3
20260507223033 56 211 2.0 0.0 0.00 0.00 0.00 85 1018.3
20260507222949 56 211 2.0 3.0 0.00 0.00 0.00 85 1018.0
20260507222529 56 203 2.0 0.0 0.00 0.00 0.00 85 1018.4
20260507222047 56 200 3.0 0.0 0.00 0.00 0.00 85 1018.4
20260507221548 56 200 2.0 0.0 0.00 0.00 0.00 85 1018.4
20260507221534 56 200 2.0 0.0 0.00 0.00 0.00 85 1018.3
20260507221007 57 217 1.0 0.0 0.00 0.00 0.00 85 1018.3
20260507220950 57 217 1.0 3.0 0.00 0.00 0.00 85 1018.2
20260507220524 57 217 1.0 0.0 0.00 0.00 0.00 85 1018.4
20260507220034 56 217 1.0 0.0 0.00 0.00 0.00 85 1018.4
20260507220011 57 217 2.0 0.0 0.00 0.00 0.00 85 1018.4
20260507215949 57 217 1.0 3.0 0.00 0.00 0.00 85 1018.2
20260507215524 57 217 1.0 0.0 0.00 0.00 0.00 85 1018.3
20260507215020 57 217 2.0 0.0 0.00 0.00 0.00 85 1018.3
20260507214950 57 217 0.0 3.0 0.00 0.00 0.00 85 1018.1
20260507214532 57 217 3.0 0.0 0.00 0.00 0.00 85 1018.3
20260507214516 57 217 3.0 0.0 0.00 0.00 0.00 85 1018.3
20260507214022 57 217 4.0 0.0 0.00 0.00 0.00 85 1018.4
20260507213950 57 209 3.0 5.0 0.00 0.00 0.00 85 1018.0
20260507213512 57 199 4.0 0.0 0.00 0.00 0.00 85 1018.3
20260507213040 57 190 4.0 0.0 0.00 0.00 0.00 85 1018.3
20260507213015 57 184 4.0 0.0 0.00 0.00 0.00 85 1018.3
20260507212949 57 185 5.0 6.0 0.00 0.00 0.00 85 1018.0
20260507212529 58 200 3.0 0.0 0.00 0.00 0.00 85 1018.1
20260507212022 58 212 4.0 0.0 0.00 0.00 0.00 85 1018.2
20260507211951 58 215 3.0 5.0 0.00 0.00 0.00 85 1017.7
20260507211638 57 217 4.0 0.0 0.00 0.00 0.00 85 1018.2
20260507211533 58 216 4.0 0.0 0.00 0.00 0.00 85 1018.3
20260507211013 58 208 4.0 0.0 0.00 0.00 0.00 84 1018.1
20260507210519 59 193 3.0 0.0 0.00 0.00 0.00 84 1018.0
20260507210141 58 179 2.0 0.0 0.00 0.00 0.00 84 1018.1
20260507210034 59 169 2.0 0.0 0.00 0.00 0.00 84 1018.1
20260507205949 59 137 1.0 5.0 0.00 0.00 0.00 84 1017.7
20260507205518 59 23 1.0 0.0 0.00 0.00 0.00 85 1018.0
20260507205011 60 23 0.0 0.0 0.00 0.00 0.00 86 1018.0
20260507204950 60 23 1.0 3.0 0.00 0.00 0.00 86 1017.6
20260507204618 59 18 0.0 0.0 0.00 0.00 0.00 86 1018.1
20260507204525 60 18 0.0 0.0 0.00 0.00 0.00 86 1018.1
20260507204010 60 17 1.0 0.0 0.00 0.00 0.00 86 1018.1
20260507203949 60 17 0.0 2.0 0.00 0.00 0.00 86 1017.8
20260507203524 60 17 2.0 0.0 0.00 0.00 0.00 86 1018.1
20260507203050 59 17 3.0 0.0 0.00 0.00 0.00 86 1018.0
20260507203010 60 17 3.0 0.0 0.00 0.00 0.00 86 1018.1
20260507202950 60 18 2.0 5.0 0.00 0.00 0.00 86 1017.7
20260507202520 59 346 4.0 0.0 0.00 0.00 0.00 85 1018.2
20260507202018 59 282 3.0 0.0 0.00 0.00 0.00 85 1018.2
20260507201949 59 313 4.0 6.0 0.00 0.00 0.00 85 1017.7
20260507201633 59 321 3.0 0.0 0.00 0.00 0.00 84 1018.1
20260507201525 60 258 3.0 0.0 0.00 0.00 0.00 84 1018.1
20260507201024 60 211 3.0 0.0 0.00 0.00 0.00 84 1018.0
20260507200949 60 198 1.0 5.0 0.00 0.00 0.00 84 1017.5
20260507200524 60 197 4.0 0.0 0.00 0.00 0.00 84 1018.0
20260507200043 60 200 3.0 0.0 0.00 0.00 0.00 84 1017.9
20260507195948 60 205 3.0 5.0 0.00 0.00 0.00 84 1017.5
20260507195522 61 213 3.0 0.0 0.00 0.00 0.00 84 1017.9
20260507195024 61 200 4.0 0.0 0.00 0.00 0.00 84 1017.9
20260507194950 61 198 3.0 7.0 0.00 0.00 0.00 84 1017.5
20260507194514 61 200 4.0 0.0 0.00 0.00 0.00 84 1017.9
20260507194012 61 204 3.0 0.0 0.00 0.00 0.00 84 1017.9
20260507193950 61 204 3.0 5.0 0.00 0.00 0.00 84 1017.5
20260507193533 61 221 3.0 0.0 0.00 0.00 0.00 83 1018.0
20260507193015 61 219 3.0 0.0 0.00 0.00 0.00 83 1018.0
20260507192949 61 217 2.0 3.0 0.00 0.00 0.00 83 1017.6
20260507192535 62 207 3.0 0.0 0.00 0.00 0.00 83 1017.9
20260507192014 62 199 4.0 0.0 0.00 0.00 0.00 83 1017.7
20260507191950 62 201 3.0 5.0 0.00 0.00 0.00 83 1017.3
20260507191632 61 206 3.0 0.0 0.00 0.00 0.00 83 1017.8
20260507191516 62 209 4.0 0.0 0.00 0.00 0.00 83 1017.8
20260507191009 62 219 4.0 0.0 0.00 0.00 0.00 83 1018.0
20260507190950 62 217 3.0 5.0 0.00 0.00 0.00 83 1017.6
20260507190526 62 205 4.0 0.0 0.00 0.00 0.00 83 1018.0
20260507190036 62 196 4.0 0.0 0.00 0.00 0.00 83 1017.9
20260507185950 62 194 3.0 7.0 0.00 0.00 0.00 83 1017.6
20260507185549 62 202 5.0 0.0 0.00 0.00 0.00 83 1018.0
20260507185013 62 206 4.0 0.0 0.00 0.00 0.00 82 1018.0
20260507184949 62 209 5.0 7.0 0.00 0.00 0.00 82 1017.5
20260507184516 63 211 3.0 0.0 0.00 0.00 0.00 82 1017.9
20260507184022 63 212 3.0 0.0 0.00 0.00 0.00 82 1017.9
20260507183950 63 212 3.0 5.0 0.00 0.00 0.00 82 1017.7
20260507183525 63 223 3.0 0.0 0.00 0.00 0.00 81 1018.0
20260507183149 63 228 3.0 0.0 0.00 0.00 0.00 81 1017.8
20260507183014 63 217 2.0 0.0 0.00 0.00 0.00 81 1017.7
20260507182522 64 193 3.0 0.0 0.00 0.00 0.00 80 1017.7
20260507182014 64 193 2.0 0.0 0.00 0.00 0.00 80 1017.6
20260507181950 64 193 3.0 3.0 0.00 0.00 0.00 80 1017.2
20260507181623 63 193 2.0 0.0 0.00 0.00 0.00 80 1017.5
20260507181543 64 193 2.0 0.0 0.00 0.00 0.00 80 1017.5
20260507181024 64 193 3.0 0.0 0.00 0.00 0.00 79 1017.5
20260507180950 64 193 2.0 3.0 0.00 0.00 0.00 79 1017.2
20260507180518 64 193 3.0 0.0 0.00 0.00 0.00 79 1017.5
20260507180039 65 193 2.0 0.0 0.00 0.00 0.00 79 1017.6
20260507175950 65 195 2.0 3.0 0.00 0.00 0.00 78 1017.3
20260507175544 65 227 2.0 0.0 0.00 0.00 0.00 78 1017.6
20260507175014 66 227 2.0 0.0 0.00 0.00 0.00 77 1017.6
20260507174950 66 227 2.0 3.0 0.00 0.00 0.00 77 1017.4
20260507174629 65 227 2.0 0.0 0.00 0.00 0.00 77 1017.7
20260507174515 66 227 2.0 0.0 0.00 0.00 0.00 77 1017.7
20260507174015 66 227 2.0 0.0 0.00 0.00 0.00 76 1017.6
20260507173950 66 227 2.0 3.0 0.00 0.00 0.00 76 1017.4
20260507173521 67 227 3.0 0.0 0.00 0.00 0.00 76 1017.8
20260507173011 67 229 2.0 0.0 0.00 0.00 0.00 75 1017.9
20260507172950 67 229 2.0 3.0 0.00 0.00 0.00 75 1017.4
20260507172526 67 242 2.0 0.0 0.00 0.00 0.00 75 1017.9
20260507172019 68 263 2.0 0.0 0.00 0.00 0.00 74 1018.0
20260507171950 68 263 2.0 3.0 0.00 0.00 0.00 74 1017.7
20260507171543 68 263 2.0 0.0 0.00 0.00 0.00 74 1017.9
20260507171024 68 263 1.0 0.0 0.00 0.00 0.00 71 1017.9
20260507170950 68 286 2.0 3.0 0.00 0.00 0.00 71 1017.4
20260507170549 68 360 0.0 0.0 0.00 0.00 0.00 70 1017.7
20260507170045 68 360 1.0 0.0 0.00 0.00 0.00 70 1017.6
20260507165950 68 0 0.0 2.0 0.00 0.00 0.00 70 1017.1
20260507165525 69 360 1.0 0.0 0.00 0.00 0.00 70 1017.4
20260507165020 69 360 1.0 0.0 0.00 0.00 0.00 70 1017.5
20260507164950 69 0 1.0 2.0 0.00 0.00 0.00 69 1017.3
20260507164609 68 360 1.0 0.0 0.00 0.00 0.00 67 1017.4
20260507164514 69 360 1.0 0.0 0.00 0.00 0.00 67 1017.5
20260507164024 69 355 1.0 0.0 0.00 0.00 0.00 66 1017.5
20260507163951 69 355 2.0 3.0 0.00 0.00 0.00 66 1017.2
20260507163517 69 355 1.0 0.0 0.00 0.00 0.00 69 1017.8
20260507163138 69 339 2.0 0.0 0.00 0.00 0.00 68 1017.7
20260507163013 69 339 2.0 0.0 0.00 0.00 0.00 67 1017.8
20260507162951 69 339 1.0 3.0 0.00 0.00 0.00 66 1017.5
20260507162524 69 339 2.0 0.0 0.00 0.00 0.00 67 1017.7
20260507162012 69 338 2.0 0.0 0.00 0.00 0.00 67 1017.7
20260507161950 69 338 1.0 3.0 0.00 0.00 0.00 67 1017.3
20260507161530 69 331 3.0 0.0 0.00 0.00 0.00 68 1017.8
20260507161504 69 331 3.0 0.0 0.00 0.00 0.00 68 1017.7
20260507161016 69 344 3.0 0.0 0.00 0.00 0.00 68 1017.8
20260507160951 69 344 2.0 3.0 0.00 0.00 0.00 68 1017.4
20260507160515 70 341 4.0 0.0 0.00 0.00 0.00 68 1017.9
20260507160138 69 340 4.0 0.0 0.00 0.00 0.00 67 1017.6
20260507160019 70 344 4.0 0.0 0.00 0.00 0.00 67 1017.9
20260507155523 70 343 3.0 0.0 0.00 0.00 0.00 67 1017.9
20260507155032 71 345 3.0 0.0 0.00 0.00 0.00 67 1017.9
20260507154950 71 347 2.0 3.0 0.00 0.00 0.00 67 1017.5
20260507154649 70 336 3.0 0.0 0.00 0.00 0.00 67 1017.9
20260507154516 71 331 3.0 0.0 0.00 0.00 0.00 66 1017.9
20260507154021 71 338 2.0 0.0 0.00 0.00 0.00 65 1017.8
20260507153513 71 348 2.0 0.0 0.00 0.00 0.00 67 1017.7
20260507153117 71 348 1.0 0.0 0.00 0.00 0.00 66 1017.7
20260507153017 71 348 1.0 0.0 0.00 0.00 0.00 67 1017.9
20260507152953 71 348 2.0 3.0 0.00 0.00 0.00 66 1017.4
20260507152518 71 348 1.0 0.0 0.00 0.00 0.00 65 1017.8
20260507152011 72 348 1.0 0.0 0.00 0.00 0.00 64 1017.7
20260507151949 72 348 2.0 3.0 0.00 0.00 0.00 64 1017.4
20260507151655 71 326 1.0 0.0 0.00 0.00 0.00 65 1017.7
20260507151533 72 319 1.0 0.0 0.00 0.00 0.00 65 1017.7
20260507151024 71 236 0.0 0.0 0.00 0.00 0.00 67 1017.7
20260507150950 71 236 1.0 2.0 0.00 0.00 0.00 66 1017.5
20260507150520 71 236 0.0 0.0 0.00 0.00 0.00 66 1017.7
20260507150144 70 236 0.0 0.0 0.00 0.00 0.00 67 1017.7
20260507150015 70 236 0.0 0.0 0.00 0.00 0.00 67 1017.9
20260507145949 70 236 0.0 1.0 0.00 0.00 0.00 67 1017.6
20260507145509 70 236 0.0 0.0 0.00 0.00 0.00 69 1017.8
20260507145032 69 236 1.0 0.0 0.00 0.00 0.00 70 1018.0
20260507144516 69 236 1.0 0.0 0.00 0.00 0.00 71 1017.9
20260507144051 69 236 1.0 0.0 0.00 0.00 0.00 72 1017.8
20260507143534 69 236 4.0 0.0 0.00 0.00 0.00 71 1017.9
20260507143049 68 244 5.0 0.0 0.00 0.00 0.00 70 1017.9
20260507143022 69 236 5.0 0.0 0.00 0.00 0.00 69 1018.0
20260507142951 69 242 6.0 8.0 0.00 0.00 0.00 69 1017.5
20260507142513 69 242 5.0 0.0 0.00 0.00 0.00 70 1017.8
20260507142046 69 232 4.0 0.0 0.00 0.00 0.00 69 1017.8
20260507141636 69 225 3.0 0.0 0.00 0.00 0.00 69 1017.6
20260507141528 69 227 3.0 0.0 0.00 0.00 0.00 69 1017.6
20260507141013 69 234 2.0 0.0 0.00 0.00 0.00 69 1017.7
20260507140950 69 237 3.0 5.0 0.00 0.00 0.00 70 1017.4
20260507140525 70 231 2.0 0.0 0.00 0.00 0.00 70 1017.6
20260507140010 70 243 2.0 0.0 0.00 0.00 0.00 69 1017.8
20260507135951 69 243 2.0 3.0 0.00 0.00 0.00 70 1017.4
20260507135547 70 234 1.0 0.0 0.00 0.00 0.00 71 1017.7
20260507135031 69 257 1.0 0.0 0.00 0.00 0.00 71 1017.8
20260507134951 69 257 1.0 3.0 0.00 0.00 0.00 72 1017.5
20260507134604 69 259 1.0 0.0 0.00 0.00 0.00 71 1017.8
20260507134512 69 236 1.0 0.0 0.00 0.00 0.00 70 1017.8
20260507134014 69 280 1.0 0.0 0.00 0.00 0.00 70 1017.8
20260507133950 69 280 1.0 2.0 0.00 0.00 0.00 71 1017.5
20260507133531 68 280 1.0 0.0 0.00 0.00 0.00 72 1017.9
20260507133121 68 280 1.0 0.0 0.00 0.00 0.00 73 1017.9
20260507133045 68 280 1.0 0.0 0.00 0.00 0.00 73 1018.0
20260507132951 68 280 1.0 2.0 0.00 0.00 0.00 73 1017.6
20260507132524 68 280 0.0 0.0 0.00 0.00 0.00 73 1018.0
20260507132022 68 280 0.0 0.0 0.00 0.00 0.00 75 1018.0
20260507131951 68 280 0.0 1.0 0.00 0.00 0.00 75 1017.9
20260507131645 67 280 0.0 0.0 0.00 0.00 0.00 75 1018.0
20260507131515 67 280 0.0 0.0 0.00 0.00 0.00 75 1018.1
20260507131014 67 280 1.0 0.0 0.00 0.00 0.00 76 1018.2
20260507130534 68 280 1.0 0.0 0.00 0.00 0.00 77 1018.4
20260507130026 68 280 1.0 0.0 0.00 0.00 0.00 75 1018.7
20260507125515 68 280 2.0 0.0 0.00 0.00 0.00 76 1018.6
20260507125013 68 280 2.0 0.0 0.00 0.00 0.00 77 1018.9
20260507124537 68 288 2.0 0.0 0.00 0.00 0.00 76 1018.9
20260507124008 68 284 3.0 0.0 0.00 0.00 0.00 75 1019.1
20260507123952 68 284 2.0 6.0 0.00 0.00 0.00 75 1018.9
20260507123523 68 274 4.0 0.0 0.00 0.00 0.00 74 1019.2
20260507123011 68 276 4.0 0.0 0.00 0.00 0.00 73 1019.2
20260507122950 68 282 4.0 8.0 0.00 0.00 0.00 73 1018.9
20260507122532 68 263 4.0 0.0 0.00 0.00 0.00 72 1019.3
20260507122054 68 265 3.0 0.0 0.00 0.00 0.00 74 1019.4
20260507121951 68 261 3.0 3.0 0.00 0.00 0.00 73 1019.0
20260507121523 68 246 3.0 0.0 0.00 0.00 0.00 75 1019.4
20260507121028 68 246 3.0 0.0 0.00 0.00 0.00 74 1019.4
20260507120950 68 244 3.0 7.0 0.00 0.00 0.00 74 1019.1
20260507120520 68 245 3.0 0.0 0.00 0.00 0.00 73 1019.4
20260507120012 68 236 3.0 0.0 0.00 0.00 0.00 74 1019.4
20260507115951 68 234 3.0 5.0 0.00 0.00 0.00 74 1019.1
20260507115516 68 244 3.0 0.0 0.00 0.00 0.00 74 1019.3
20260507115039 68 257 3.0 0.0 0.00 0.00 0.00 74 1019.3
20260507114951 68 266 2.0 3.0 0.00 0.00 0.00 74 1019.0
20260507114525 68 278 3.0 0.0 0.00 0.00 0.00 74 1019.4
20260507114013 68 267 3.0 0.0 0.00 0.00 0.00 74 1019.4
20260507113524 68 249 3.0 0.0 0.00 0.00 0.00 75 1019.3
20260507113142 68 251 3.0 0.0 0.00 0.00 0.00 75 1019.3
20260507113014 68 255 3.0 0.0 0.00 0.00 0.00 75 1019.2
20260507112952 68 256 2.0 3.0 0.00 0.00 0.00 75 1019.0
20260507112512 68 258 3.0 0.0 0.00 0.00 0.00 73 1019.2
20260507112027 69 259 3.0 0.0 0.00 0.00 0.00 73 1019.4
20260507111951 69 259 2.0 7.0 0.00 0.00 0.00 73 1018.9
20260507111647 69 259 4.0 0.0 0.00 0.00 0.00 71 1019.3
20260507111523 69 264 4.0 0.0 0.00 0.00 0.00 70 1019.3
20260507111017 70 257 3.0 0.0 0.00 0.00 0.00 66 1019.3
20260507110513 70 267 3.0 0.0 0.00 0.00 0.00 65 1019.3
20260507110027 70 259 3.0 0.0 0.00 0.00 0.00 65 1019.2
20260507105951 70 259 3.0 7.0 0.00 0.01 0.00 64 1018.8
20260507105518 70 252 4.0 0.0 0.00 0.00 0.00 64 1019.1
20260507105030 70 246 4.0 0.0 0.00 0.00 0.00 64 1019.2
20260507104951 70 264 3.0 7.0 0.00 0.01 0.00 64 1018.9
20260507104559 69 272 4.0 0.0 0.00 0.00 0.00 65 1019.1
20260507104538 70 271 4.0 0.0 0.00 0.00 0.00 65 1019.1
20260507104021 70 252 4.0 0.0 0.00 0.00 0.00 64 1019.0
20260507103537 70 255 3.0 0.0 0.00 0.00 0.00 64 1018.9
20260507103119 69 258 4.0 0.0 0.00 0.00 0.00 64 1018.9
20260507103014 70 266 4.0 0.0 0.00 0.00 0.00 64 1018.8
20260507102952 70 264 3.0 7.0 0.00 0.01 0.00 63 1018.6
20260507102524 70 302 4.0 0.0 0.00 0.00 0.00 65 1018.8
20260507102023 70 257 4.0 0.0 0.00 0.00 0.00 64 1018.9
20260507101951 70 253 4.0 7.0 0.00 0.01 0.00 63 1018.6
20260507101621 69 263 4.0 0.0 0.00 0.00 0.00 63 1018.7
20260507101519 70 264 4.0 0.0 0.00 0.00 0.00 63 1018.8
20260507101025 70 246 4.0 0.0 0.00 0.00 0.00 62 1018.6
20260507100952 70 273 3.0 6.0 0.00 0.01 0.00 62 1018.3
20260507100523 70 273 4.0 0.0 0.00 0.00 0.00 62 1018.6
20260507100124 70 265 4.0 0.0 0.00 0.00 0.00 62 1018.6
20260507100033 70 263 4.0 0.0 0.00 0.00 0.00 62 1018.6
20260507095951 70 259 3.0 8.0 0.00 0.01 0.00 62 1018.4
20260507095528 71 262 4.0 0.0 0.00 0.00 0.00 61 1018.6
20260507095043 71 264 3.0 0.0 0.00 0.00 0.00 60 1018.6
20260507094951 71 257 4.0 6.0 0.00 0.01 0.00 60 1018.4
20260507094609 71 259 3.0 0.0 0.00 0.00 0.00 60 1018.5
20260507094517 72 253 3.0 0.0 0.00 0.00 0.00 60 1018.5
20260507094029 72 263 3.0 0.0 0.00 0.00 0.00 59 1018.4
20260507093951 72 267 3.0 3.0 0.00 0.01 0.00 60 1018.0
20260507093517 72 286 3.0 0.0 0.00 0.00 0.00 60 1018.4
20260507093108 72 254 2.0 0.0 0.00 0.00 0.00 60 1018.4
20260507093009 72 219 2.0 0.0 0.00 0.00 0.00 59 1018.4
20260507092952 72 219 2.0 3.0 0.00 0.01 0.00 59 1018.1
20260507092525 72 268 2.0 0.0 0.00 0.00 0.00 59 1018.4
20260507092011 72 267 2.0 0.0 0.00 0.00 0.00 60 1018.5
20260507091606 71 268 1.0 0.0 0.00 0.00 0.00 60 1018.4
20260507091524 72 277 1.0 0.0 0.00 0.00 0.00 59 1018.5
20260507091040 72 5 1.0 0.0 0.00 0.00 0.00 58 1018.4
20260507090951 72 7 0.0 3.0 0.00 0.01 0.00 58 1018.1
20260507090527 72 10 1.0 0.0 0.00 0.00 0.00 59 1018.4
20260507090045 71 36 1.0 0.0 0.00 0.00 0.00 60 1018.3
20260507090013 72 36 1.0 0.0 0.00 0.00 0.00 60 1018.3
20260507085951 71 36 1.0 3.0 0.00 0.01 0.00 58 1017.9
20260507085524 72 39 1.0 0.0 0.00 0.00 0.00 58 1018.2
20260507085018 71 40 1.0 0.0 0.00 0.00 0.00 60 1018.2
20260507084951 71 55 1.0 3.0 0.00 0.01 0.00 60 1017.7
20260507084542 71 61 2.0 0.0 0.00 0.00 0.00 58 1018.1
20260507084524 71 93 3.0 0.0 0.00 0.00 0.00 59 1018.0
20260507084019 71 65 4.0 0.0 0.00 0.00 0.00 58 1018.0
20260507083952 71 71 3.0 7.0 0.00 0.01 0.00 58 1017.5
20260507083535 71 78 2.0 0.0 0.00 0.00 0.00 58 1017.9
20260507083126 71 64 1.0 0.0 0.00 0.00 0.00 59 1017.9
20260507083045 71 40 1.0 0.0 0.00 0.00 0.00 58 1017.9
20260507082951 71 73 1.0 3.0 0.00 0.01 0.00 58 1017.6
20260507082514 71 51 3.0 0.0 0.00 0.00 0.00 57 1017.9
20260507082020 71 120 3.0 0.0 0.00 0.00 0.00 57 1017.9
20260507081951 71 107 3.0 8.0 0.00 0.01 0.00 57 1017.5
20260507081603 70 78 3.0 0.0 0.00 0.00 0.00 57 1017.9
20260507081513 71 69 3.0 0.0 0.00 0.00 0.00 57 1018.0
20260507081026 71 28 3.0 0.0 0.00 0.00 0.00 56 1017.8
20260507080952 71 49 3.0 7.0 0.00 0.01 0.00 56 1017.6
20260507080513 70 42 3.0 0.0 0.00 0.00 0.00 57 1017.9
20260507080026 70 83 2.0 0.0 0.00 0.00 0.00 57 1017.8
20260507075952 70 69 2.0 5.0 0.00 0.01 0.00 57 1017.6
20260507075518 69 67 2.0 0.0 0.00 0.00 0.00 60 1018.0
20260507075024 69 70 2.0 0.0 0.00 0.00 0.00 61 1017.9
20260507074951 69 53 3.0 5.0 0.00 0.01 0.00 61 1017.8
20260507074601 69 96 3.0 0.0 0.00 0.00 0.00 61 1017.8
20260507074537 69 96 2.0 0.0 0.00 0.00 0.00 61 1018.0
20260507074028 69 80 2.0 0.0 0.00 0.00 0.00 61 1017.9
20260507073517 68 13 1.0 0.0 0.00 0.00 0.00 63 1017.9
20260507073029 67 17 1.0 0.0 0.00 0.00 0.00 62 1017.9
20260507073006 67 30 1.0 0.0 0.00 0.00 0.00 62 1017.8
20260507072952 67 30 2.0 3.0 0.00 0.01 0.00 63 1017.5
20260507072537 67 64 1.0 0.0 0.00 0.00 0.00 63 1017.9
20260507072026 67 64 1.0 0.0 0.00 0.00 0.00 63 1017.9
20260507071616 66 41 2.0 0.0 0.00 0.00 0.00 63 1017.9
20260507071558 67 41 2.0 0.0 0.00 0.00 0.00 63 1018.0